Location: Dürabuch
(48.2640°N, 11.2185°E)
Time: 20:07:58
(UTC+00:00)

SL-08 R/B - Pass Details

Date: 23 May 2024
Orbit: 945 x 993 km, 83.0° (Epoch: 23 June)

Event Time Altitude Azimuth Distance (km) Brightness Sun altitude
Exits shadow 00:44:06 29° 201° (SSW) 1,680 5.1 -18.1°
Maximum altitude 00:47:24 74° 280° (W) 1,006 4.5 -17.9°
Drops below altitude 10° 00:53:34 10° 6° (N) 2,697 7.9 -17.4°
Sets 00:56:05 0° 8° (N) 3,641 8.9 -17.3°
